Torna al catalogo

CONTOUR

AttivoScienzaHEO
NORAD 27457·PAYLOAD·🇺🇸 United States

Lanciato Jul 3, 2002 da Cape Canaveral Space Force Station

Loading…

Prossimi Passaggi (prossime 24 ore)

TLE

ObsoletoSource: Space-Track

Epoca: Aug 6, 2002, 16:59 UTC

1 27457U 02034A   02218.70833333 +.00000000 +00000-0 +00000-0 0  9997
2 27457 030.5521 190.6101 8915936 340.4630 356.7346 00.57921679000002

Traccia CONTOUR in tempo reale con AllMySat

Download on the App Store